1998-067RA (45257 NORAD) Tracking and Keplerian Element Data

This shows tracking and keplerian element data for the satellite.

Feedback or suggestion? Click here.




ElementValue
Catalog45257
Name1998-067RA
Epoch Orbit588
Epoch Day88.10763247
Epoch Year2020
RAAN29.4126
Inclination51.6433
Eccentricity0.0009139
Argument of Perigee63.3569
Mean Anonmoly296.8355
Mean Motion15.50220854
Decay Rate5.716E-05
L11 45257U 98067RA 20088.10763247 .00005716 00000-0 10718-3 0 9990
L22 45257 51.6433 29.4126 0009139 63.3569 296.8355 15.50220854 5886

Live tracking and technical data element details for 1998-067RA (NORAD 45257). 1998-067RA can be tracked NOW for your location showing map with azimuth and elevation plus other details from your city location.

Track the satellite on the map from your city or location and see movement details for azimuth, elevation, latitude, longitude, range, height, and movement on the map or in text.







IsCatalogInMostPopularTable: catalog: 45257, numindb: 195
Update: records affected: 1



GetName: 45257 1998-067RA

Hit Count: updated at: Tue, 31 Mar 2020 13:54:13 GMT